Stations météo

Publicité
Beauvais, France (7055): Température de l'air & dewpoint: 15.01.2018 15:00:00 - 21.01.2018 15:00:00 (CET)Beauvais, France (7055): Température de l'air 5cm: 15.01.2018 15:00:00 - 21.01.2018 15:00:00 (CET)Beauvais, France (7055): Température de l'air -20cm & Température de l'air -100cm: 15.01.2018 15:00:00 - 21.01.2018 15:00:00 (CET)Beauvais, France (7055): Vitesse du vent & gusts: 15.01.2018 15:00:00 - 21.01.2018 15:00:00 (CET)Beauvais, France (7055): Direction du vent: 15.01.2018 15:00:00 - 21.01.2018 15:00:00 (CET)Beauvais, France (7055): reduced air pressure: 15.01.2018 15:00:00 - 21.01.2018 15:00:00 (CET)Beauvais, France (7055): visibility: 15.01.2018 15:00:00 - 21.01.2018 15:00:00 (CET)Beauvais, France (7055): Ensoleillement: 15.01.2018 15:00:00 - 21.01.2018 15:00:00 (CET)Beauvais, France (7055): Quantités de précipitations: 15.01.2018 15:00:00 - 21.01.2018 15:00:00 (CET)
Date & Time tt [°C] td [°C] tt 5cm [°C] tt -20cm [°C] tt -100cm [°C] ff [km/h] ff [knt] fx [km/h] fx [knt] dd ppp [hPa] vv [km] sd [min] rr [mm]
21.01.2018 15:00:00 5,5 4,9 6,2 6,9 8,2 19 10 27 15 SSE 1014,5 4,2 0 0,6
21.01.2018 14:00:00 5,4 5,0 5,5 6,8 8,2 18 10 26 14 SE 1016,0 2,7 0 1,0
21.01.2018 13:00:00 4,9 4,3 5,6 6,9 8,2 15 8 21 11 SE 1017,0 5 0 0,4
21.01.2018 12:00:00 4,5 3,6 4,9 6,9 8,2 8 4 12 6 ESE 1018,2 9 0 0,8
21.01.2018 11:00:00 4,1 3,1 4,4 6,9 8,2 6 3 12 6 ESE 1018,3 11 0 0,2
21.01.2018 10:00:00 3,7 2,7 2,9 6,9 8,2 6 3 8 4 ESE 1017,8 13 9 0,0
21.01.2018 09:00:00 2,8 1,8 2,0 6,9 8,2 0 0 8 4 N 1017,6 16 0 0,0
21.01.2018 08:00:00 3,0 2,1 1,1 6,9 8,2 3 1 7 4 N 1017,0 22 0 0,0
21.01.2018 07:00:00 2,8 2,1 1,3 6,9 8,2 8 4 13 7 WNW 1016,3 19 0 0,0
21.01.2018 06:00:00 3,9 2,3 3,4 6,9 8,3 9 5 16 9 NW 1015,3 39 0 0,0
21.01.2018 05:00:00 4,9 3,4 4,6 6,8 8,2 7 4 16 8 NNW 1014,7 31 0 0,0
21.01.2018 04:00:00 5,2 3,0 4,7 6,8 8,2 11 6 16 9 NNW 1013,9 50 0 0,0
21.01.2018 03:00:00 5,7 3,5 5,0 6,8 8,2 13 7 21 11 NNW 1012,7 32 0 0,0
21.01.2018 02:00:00 5,9 4,1 5,3 6,8 8,3 17 9 24 13 NNW 1011,4 29 0 0,0
21.01.2018 01:00:00 6,2 4,2 5,5 6,8 8,3 19 10 31 17 NNW 1009,4 36 0 0,0
21.01.2018 00:00:00 6,7 5,0 5,2 6,7 8,3 19 10 44 24 NW 1007,4 60 0 0,0
20.01.2018 23:00:00 7,5 6,0 6,4 6,7 8,3 24 13 36 19 NW 1005,4 56 0 0,0
20.01.2018 22:00:00 8,5 6,8 7,6 6,7 8,3 29 16 48 26 NW 1003,7 59 0 0,0
20.01.2018 21:00:00 8,6 7,8 6,1 6,7 8,3 16 9 28 15 NW 1002,3 13 0 0,6
20.01.2018 20:00:00 8,0 7,1 6,4 6,7 8,3 11 6 29 16 W 1001,0 60 0 0,0
20.01.2018 19:00:00 8,5 7,6 7,5 6,7 8,3 19 10 31 17 WNW 1000,3 5 0 1,6
20.01.2018 18:00:00 8,7 7,5 7,6 6,7 8,3 22 12 43 23 W 999,6 11 0 0,8
20.01.2018 17:00:00 8,7 7,6 8,1 6,7 8,3 20 11 41 22 WNW 999,1 17 0 0,0
20.01.2018 16:00:00 8,9 7,3 7,8 6,6 8,3 22 12 35 19 WNW 998,6 55 0 0,0
20.01.2018 15:00:00 7,9 7,1 7,4 6,7 8,3 20 11 31 17 W 997,3 20 0 0,0
20.01.2018 14:00:00 6,8 6,2 6,8 6,7 8,3 8 4 24 13 W 997,5 6 0 0,0
20.01.2018 13:00:00 6,2 5,5 6,1 6,7 8,3 16 8 29 16 S 998,3 11 0 0,0
20.01.2018 12:00:00 5,5 4,8 5,8 6,7 8,3 17 9 29 16 SSE 999,5 7 0 0,0
20.01.2018 11:00:00 5,3 4,4 5,0 6,7 8,3 17 9 27 14 S 1001,1 6 0 0,2
20.01.2018 10:00:00 4,8 4,1 4,3 6,7 8,3 15 8 22 12 SSE 1003,1 13 0 0,2
20.01.2018 09:00:00 4,4 3,7 4,0 6,7 8,3 16 9 23 13 SSE 1004,8 15 0 0,4
20.01.2018 08:00:00 4,3 3,6 3,9 6,7 8,3 11 6 23 12 S 1006,5 11 0 0,6
20.01.2018 07:00:00 4,2 3,3 3,6 6,8 8,3 14 8 25 14 S 1008,1 17 0 0,2
20.01.2018 06:00:00 4,2 3,0 3,0 6,8 8,3 20 11 31 17 SW 1009,2 21 0 0,0
20.01.2018 05:00:00 3,9 2,3 2,6 6,8 8,3 18 10 26 14 SW 1010,3 50 0 0,0
20.01.2018 04:00:00 3,5 2,0 2,4 6,8 8,3 15 8 27 15 SW 1011,5 54 0 0,0
20.01.2018 03:00:00 3,5 1,9 2,1 6,8 8,3 16 9 27 14 SW 1012,5 59 0 0,0
20.01.2018 02:00:00 3,7 1,9 2,3 6,9 8,3 19 10 36 19 WSW 1013,1 58 0 0,0
20.01.2018 01:00:00 3,6 2,0 1,8 6,9 8,3 20 11 31 17 WSW 1013,3 52 0 0,0
20.01.2018 00:00:00 3,4 1,8 1,8 6,9 8,3 21 12 30 16 WSW 1013,7 60 0 0,0
19.01.2018 23:00:00 3,7 1,6 1,9 6,9 8,3 21 11 34 18 WSW 1013,6 60 0 0,0
19.01.2018 22:00:00 3,7 1,6 1,5 6,9 8,3 18 10 28 15 WSW 1013,7 53 0 0,0
19.01.2018 21:00:00 3,9 1,4 1,8 6,9 8,3 15 8 28 15 SW 1013,4 58 0 0,0
19.01.2018 20:00:00 4,2 2,1 1,3 6,9 8,3 12 7 18 10 WSW 1013,5 54 0 0,0
19.01.2018 19:00:00 3,3 1,5 1,5 6,9 8,3 10 5 45 25 SW 1013,4 55 0 0,2
19.01.2018 18:00:00 2,8 1,5 0,9 6,9 8,3 7 4 32 17 SSW 1013,2 49 0 0,2
19.01.2018 17:00:00 3,7 1,9 2,7 6,9 8,3 15 8 28 15 WSW 1013,6 15 0 0,0
19.01.2018 16:00:00 4,3 1,2 3,5 6,9 8,3 23 12 40 22 WSW 1013,0 30 0 1,0
19.01.2018 15:00:00 - - - - - - - - - - - - - -
19.01.2018 14:00:00 5,7 3,0 5,2 6,9 8,3 17 9 29 16 WSW 1013,0 28 25 0,0
19.01.2018 13:00:00 4,6 2,6 5,7 6,9 8,3 16 9 31 17 W 1013,3 60 9 0,0
19.01.2018 12:00:00 4,7 3,0 5,4 6,9 8,3 20 11 31 17 W 1013,4 30 19 0,0
19.01.2018 11:00:00 4,5 2,8 4,3 6,9 8,3 15 8 24 13 SW 1012,9 10 24 0,0
19.01.2018 10:00:00 4,0 2,5 2,9 7,0 8,3 9 5 18 10 WSW 1012,6 10 8 0,0
19.01.2018 09:00:00 3,0 1,8 2,9 7,0 8,3 4 2 26 14 WNW 1012,4 60 0 0,2
19.01.2018 08:00:00 3,2 1,9 2,7 7,0 8,3 9 5 40 21 SW 1012,1 10 0 0,4
19.01.2018 07:00:00 3,4 2,2 3,3 7,0 8,3 11 6 33 18 W 1011,8 10 0 1,0
19.01.2018 06:00:00 4,0 2,3 2,3 7,0 8,3 22 12 36 20 WSW 1011,4 10 0 0,2
19.01.2018 05:00:00 3,7 2,2 2,3 7,0 8,3 16 9 26 14 SW 1011,1 10 0 0,0
19.01.2018 04:00:00 3,7 2,2 2,7 7,0 8,3 11 6 29 16 SW 1011,1 10 0 0,2
19.01.2018 03:00:00 3,8 2,2 0,9 7,0 8,3 15 8 29 16 W 1010,9 10 0 0,8
19.01.2018 02:00:00 3,4 1,3 0,9 7,1 8,3 9 5 26 14 W 1010,5 10 0 0,0
19.01.2018 01:00:00 4,5 2,0 2,7 7,0 8,3 18 10 27 14 W 1009,9 10 0 0,0
19.01.2018 00:00:00 4,7 2,7 3,1 7,0 8,3 16 9 30 16 W 1009,2 10 0 0,0
18.01.2018 23:00:00 4,9 2,9 3,2 7,0 8,3 21 11 29 15 W 1008,4 10 0 0,0
18.01.2018 22:00:00 4,9 2,8 3,6 7,0 8,3 16 9 67 36 WSW 1007,7 10 0 1,2
18.01.2018 21:00:00 6,9 5,2 4,8 7,0 8,3 21 11 42 23 W 1007,0 10 0 0,0
18.01.2018 20:00:00 6,4 4,4 5,7 6,9 8,3 18 10 59 32 W 1006,7 10 0 0,8
18.01.2018 19:00:00 8,2 4,0 5,9 6,9 8,3 21 11 41 22 WSW 1006,0 10 0 0,0
18.01.2018 18:00:00 8,6 4,0 6,4 6,9 8,3 21 11 37 20 W 1005,9 10 0 0,0
18.01.2018 17:00:00 9,1 3,1 6,9 6,9 8,3 21 11 46 25 W 1005,8 44 30 0,0
18.01.2018 16:00:00 10,2 3,2 8,6 6,8 8,3 32 17 48 26 W 1005,5 27 60 0,0
18.01.2018 15:00:00 10,3 3,6 9,5 6,8 8,3 31 17 45 25 W 1005,3 10 36 0,0
18.01.2018 14:00:00 10,0 4,1 9,2 6,8 8,3 26 14 50 27 W 1005,6 20 13 0,0
18.01.2018 13:00:00 10,0 4,4 8,8 6,7 8,3 28 15 60 32 W 1005,9 19 24 0,0
18.01.2018 12:00:00 10,1 5,1 8,4 6,7 8,3 33 18 62 34 WNW 1006,0 14 10 0,0
18.01.2018 11:00:00 10,7 6,4 8,7 6,7 8,4 34 18 62 34 W 1005,3 10 31 0,0
18.01.2018 10:00:00 10,6 8,0 8,2 6,7 8,3 26 14 62 33 W 1004,3 16 0 0,0
18.01.2018 09:00:00 11,0 7,1 8,1 6,7 8,3 44 24 64 35 W 1003,1 10 0 0,0
18.01.2018 08:00:00 10,0 8,4 8,7 6,7 8,3 37 20 60 33 WSW 1002,5 10 0 0,2
18.01.2018 07:00:00 9,7 8,3 8,2 6,7 8,3 35 19 59 32 WSW 1002,1 10 0 0,2
18.01.2018 06:00:00 9,2 7,8 7,3 6,7 8,3 31 17 61 33 WSW 1002,2 10 0 0,0
18.01.2018 05:00:00 8,0 6,9 6,4 6,7 8,3 35 19 56 30 SW 1002,9 7 0 0,2
18.01.2018 04:00:00 7,2 5,8 5,6 6,7 8,3 34 18 61 33 SW 1004,2 10 0 0,6
18.01.2018 03:00:00 6,3 4,9 5,0 6,7 8,3 29 16 48 26 SW 1006,2 13 0 0,8
18.01.2018 02:00:00 5,7 4,2 4,8 6,7 8,4 28 15 48 26 SSW 1007,9 10 0 0,4
18.01.2018 01:00:00 5,8 3,5 4,6 6,7 8,4 26 14 40 22 SSW 1010,1 10 0 0,0
18.01.2018 00:00:00 5,6 3,4 4,7 6,7 8,4 24 13 40 22 SW 1011,7 10 0 0,0
17.01.2018 23:00:00 5,7 2,9 4,0 6,7 8,4 27 14 44 24 SW 1012,6 50 0 0,0
17.01.2018 22:00:00 5,3 2,8 3,7 6,7 8,4 24 13 39 21 SW 1013,1 10 0 0,0
17.01.2018 21:00:00 5,4 2,2 3,9 6,7 8,4 24 13 39 21 WSW 1013,8 41 0 0,0
17.01.2018 20:00:00 5,5 2,1 3,7 6,7 8,4 24 13 42 23 SW 1013,8 10 0 0,0
17.01.2018 19:00:00 5,6 1,9 4,0 6,7 8,3 24 13 40 21 WSW 1013,8 10 0 0,0
17.01.2018 18:00:00 6,5 1,0 4,4 6,7 8,4 18 10 35 19 WSW 1013,8 10 0 0,0
17.01.2018 17:00:00 6,4 1,3 4,7 6,7 8,4 21 11 49 26 W 1013,6 10 2 0,0
17.01.2018 16:00:00 7,5 1,3 6,4 6,7 8,4 28 15 47 25 W 1012,8 10 19 0,0
17.01.2018 15:00:00 7,1 0,5 6,5 6,7 8,4 36 20 56 30 W 1012,7 19 27 0,0
17.01.2018 14:00:00 7,7 0,4 6,9 6,7 8,4 29 16 68 37 W 1012,5 10 36 0,0
17.01.2018 13:00:00 7,6 0,8 5,9 6,8 8,4 39 21 61 33 W 1012,1 10 44 0,0
17.01.2018 12:00:00 6,6 0,7 4,7 6,8 8,4 33 18 57 31 W 1012,0 30 11 0,0
17.01.2018 11:00:00 5,3 0,5 3,2 6,8 8,4 15 8 27 15 WSW 1011,1 20 48 0,0
17.01.2018 10:00:00 4,0 0,0 1,6 6,8 8,4 17 9 35 19 WSW 1009,9 20 36 0,0
17.01.2018 09:00:00 3,4 -0,3 0,6 6,8 8,4 24 13 48 26 W 1008,6 43 0 0,0
17.01.2018 08:00:00 2,6 0,0 0,9 6,9 8,4 15 8 43 23 WSW 1007,1 10 0 0,0
17.01.2018 07:00:00 3,4 0,3 1,7 6,9 8,4 26 14 49 26 W 1005,5 10 0 0,0
17.01.2018 06:00:00 3,2 0,3 1,9 6,9 8,4 41 22 63 34 W 1003,9 10 0 0,0
17.01.2018 05:00:00 3,3 1,5 2,2 6,9 8,4 28 15 47 26 WSW 1002,9 10 0 0,0
17.01.2018 04:00:00 3,2 1,6 1,7 6,9 8,4 24 13 37 20 WSW 1002,5 10 0 0,0
17.01.2018 03:00:00 2,6 1,3 2,1 6,9 8,4 24 13 42 23 W 1002,2 10 0 1,0
17.01.2018 02:00:00 2,1 1,2 1,5 7,0 8,4 22 12 66 36 WNW 1001,6 10 0 3,0
17.01.2018 01:00:00 3,3 1,5 2,0 6,9 8,4 24 13 37 20 WSW 1000,8 10 0 0,2
17.01.2018 00:00:00 2,5 1,3 2,3 7,0 8,4 31 17 50 27 W 1000,5 10 0 4,0
16.01.2018 23:00:00 4,9 3,1 3,8 7,0 8,4 28 15 58 31 WSW 999,2 10 0 0,2
16.01.2018 22:00:00 5,2 2,9 3,7 6,9 8,4 29 16 45 24 WSW 999,5 10 0 0,0
16.01.2018 21:00:00 4,9 2,9 3,5 6,9 8,4 24 13 59 32 SW 999,8 10 0 0,0
16.01.2018 20:00:00 5,5 2,8 4,3 6,9 8,4 28 15 48 26 W 1000,3 10 0 0,0
16.01.2018 19:00:00 5,6 3,4 4,3 6,9 8,4 21 11 39 21 SW 1000,4 10 0 0,0
16.01.2018 18:00:00 6,0 3,0 4,2 6,9 8,4 21 11 39 21 WSW 1000,8 10 0 0,0
16.01.2018 17:00:00 6,8 3,4 5,4 6,9 8,4 24 13 38 21 WSW 1001,4 60 7 0,0
16.01.2018 16:00:00 6,5 4,3 5,9 6,9 8,4 29 16 43 23 WNW 1001,2 6 6 0,6
16.01.2018 15:00:00 7,5 4,6 6,5 6,8 8,4 26 14 54 29 W 1000,8 10 14 0,4
16.01.2018 14:00:00 7,3 4,8 5,6 6,8 8,4 21 11 38 20 WSW 1001,2 40 0 0,2
16.01.2018 13:00:00 5,7 3,7 5,5 6,8 8,4 26 14 63 34 WNW 1002,0 10 30 0,4
16.01.2018 12:00:00 7,9 4,8 5,6 6,8 8,4 35 19 59 32 W 1001,9 10 41 0,0
16.01.2018 11:00:00 6,7 4,7 5,8 6,8 8,4 20 11 31 17 WSW 1001,1 51 4 0,0
16.01.2018 10:00:00 6,6 4,1 5,8 6,8 8,4 22 12 41 22 W 1001,2 10 0 0,2
16.01.2018 09:00:00 7,3 5,1 5,8 6,8 8,4 20 11 40 21 W 1000,6 49 0 0,6
16.01.2018 08:00:00 6,8 4,9 5,1 6,8 8,4 19 10 61 33 W 999,5 60 0 2,2
16.01.2018 07:00:00 8,0 5,6 6,0 6,8 8,5 22 12 42 23 WSW 998,5 40 0 0,0
16.01.2018 06:00:00 7,6 4,9 5,8 6,7 8,5 26 14 58 31 WSW 998,2 10 0 0,0
16.01.2018 05:00:00 7,9 5,5 5,9 6,7 8,5 31 17 52 28 SW 998,6 20 0 0,0
16.01.2018 04:00:00 7,8 5,9 6,4 6,7 8,5 26 14 49 27 SW 999,3 54 0 0,0
16.01.2018 03:00:00 7,6 6,2 6,3 6,7 8,5 24 13 40 22 SW 999,2 60 0 0,6
16.01.2018 02:00:00 7,6 5,7 6,0 6,7 8,5 23 12 40 21 SW 999,7 19 0 0,2
16.01.2018 01:00:00 7,9 5,0 5,6 6,6 8,5 22 12 35 19 WSW 1000,3 10 0 0,0
16.01.2018 00:00:00 7,7 5,2 5,4 6,6 8,5 22 12 37 20 SW 1000,6 10 0 0,0
15.01.2018 23:00:00 7,8 4,9 5,6 6,6 8,5 23 13 42 23 WSW 1000,7 41 0 0,0
15.01.2018 22:00:00 8,8 5,5 6,2 6,6 8,5 22 12 42 23 WSW 1000,0 39 0 0,0
15.01.2018 21:00:00 8,6 5,2 6,2 6,5 8,5 28 15 64 35 W 999,8 10 0 0,0
15.01.2018 20:00:00 9,4 6,7 7,3 6,5 8,5 31 17 49 26 WSW 999,3 16 0 0,0
15.01.2018 19:00:00 9,5 7,4 7,7 6,5 8,5 31 17 45 24 WSW 998,5 16 0 0,0
15.01.2018 18:00:00 8,9 7,5 7,5 6,5 8,5 29 16 47 26 SW 998,4 10 0 0,2
15.01.2018 17:00:00 8,1 7,0 7,0 6,5 8,5 31 17 59 32 SW 998,9 10 0 1,6
15.01.2018 16:00:00 7,5 6,4 6,7 6,5 8,5 39 21 68 37 SSW 999,5 10 0 1,3
15.01.2018 15:00:00 7,0 5,9 6,0 6,5 8,5 39 21 65 35 SSW 1000,7 5 0 1,8

tt = Température de l'air
td = dewpoint
tt 5cm = Température de l'air 5cm
tt -20cm = Température de l'air -20cm
tt -100cm = Température de l'air -100cm
ff = Vitesse du vent
fx = gusts
dd = Direction du vent
ppp = reduced air pressure
vv = visibility
sd = Ensoleillement
rr = Quantités de précipitations

stations d'obs. à proximité